DateTimeUTC,F1_A11,F1_S11,BsB_S11,BsG_S11,BsR_S11,BbsB_S11,BbsG_S11,BbsR_S11,BaB_A11,BaG_A11,BaR_A11,Tu_S11,T_S11,Uu_S11,U_S11,P_S11,T1_A11
2021-05-26T19:00:00Z,00000200,20000000,,,,,,,0000.64,0000.18,0000.21,19.2,25.7,11.7,07.9,0678.0,31.0
2021-05-26T19:01:00Z,00000200,20000000,,,,,,,-000.46,0000.13,0000.25,19.2,25.7,11.7,07.9,0678.0,31.0
2021-05-26T19:02:00Z,00000200,20000000,,,,,,,-000.05,0000.18,-000.01,19.2,25.7,11.7,07.9,0678.0,31.0
2021-05-26T19:03:00Z,00000200,60000000,,,,,,,0000.54,0000.24,0000.49,19.2,25.7,11.7,07.9,0678.0,31.0
2021-05-26T19:04:00Z,00000200,40000000,0003.51,0002.69,0001.44,0000.41,0000.20,0000.08,0000.05,-000.26,-000.14,19.3,25.5,11.8,08.1,0679.0,31.0
2021-05-26T19:05:00Z,00000200,00000000,0003.18,0002.04,0001.55,0000.21,0000.48,0000.33,-000.01,0000.29,0000.11,19.3,25.5,11.9,08.1,0679.0,31.0
2021-05-26T19:06:00Z,00000200,00000000,0003.75,0002.46,0001.79,0000.33,0000.42,0000.40,0000.17,0000.12,0000.26,19.3,25.4,11.9,08.2,0679.0,31.0
2021-05-26T19:07:00Z,00000200,00000000,0003.05,0002.43,0001.64,0000.48,0000.24,0000.24,0000.12,0000.07,0000.32,19.3,25.4,11.9,08.2,0679.1,31.0
2021-05-26T19:08:00Z,00000200,00000000,0003.14,0002.31,0001.65,-000.08,0000.15,0000.19,0000.30,0000.50,0000.09,19.3,25.4,11.9,08.2,0679.1,31.0
2021-05-26T19:09:00Z,00000200,00000000,0003.54,0002.22,0001.48,0000.29,0000.31,0000.01,-000.33,-000.49,-000.02,19.3,25.4,11.8,08.1,0679.0,31.0
2021-05-26T19:10:00Z,00000200,00000000,0003.67,0002.60,0001.36,-000.06,0000.55,0000.15,0000.09,0000.23,0000.72,19.3,25.4,11.9,08.2,0679.1,31.0
2021-05-26T19:11:00Z,00000200,00000000,0002.93,0002.32,0001.30,-000.08,0000.22,0000.16,0000.66,0000.59,-000.30,19.3,25.4,11.8,08.1,0679.1,31.1
2021-05-26T19:12:00Z,00000200,00000000,0003.35,0002.46,0001.49,-000.13,0000.46,0000.51,-000.28,-000.47,0000.22,19.3,25.4,11.9,08.2,0679.1,31.0
2021-05-26T19:13:00Z,00000200,00000000,0003.30,0002.42,0001.47,0000.44,0000.44,0000.38,0000.21,0000.13,0000.48,19.3,25.4,11.8,08.1,0679.1,31.1
2021-05-26T19:14:00Z,00000200,00000000,0003.16,0002.22,0001.47,-000.00,0000.37,0000.27,-000.06,0000.53,-000.07,19.3,25.4,11.7,08.1,0679.1,31.0
2021-05-26T19:15:00Z,00000200,00000000,0002.57,0002.28,0001.62,0000.29,0000.24,0000.24,-000.00,-000.41,-000.13,19.3,25.4,11.7,08.1,0679.1,31.0
2021-05-26T19:16:00Z,00000200,00000000,0003.24,0002.07,0001.30,0000.94,0000.37,0000.39,0000.11,0000.29,0000.37,19.3,25.4,11.8,08.1,0679.1,31.1
2021-05-26T19:17:00Z,00000200,00000000,0003.14,0002.76,0001.85,0000.38,0000.40,0000.40,-000.21,0000.38,0000.23,19.3,25.4,11.7,08.1,0679.2,31.1
2021-05-26T19:18:00Z,00000200,00000000,0002.96,0002.15,0001.56,0000.34,0000.26,0000.15,0000.19,-000.50,0000.07,19.3,25.4,11.8,08.1,0679.1,31.1
2021-05-26T19:19:00Z,00000200,00000000,0002.54,0002.17,0001.47,0000.23,0000.12,0000.22,-000.04,0000.50,0000.40,19.3,25.4,11.7,08.1,0679.1,31.1
2021-05-26T19:20:00Z,00000200,00000000,0003.16,0002.51,0001.39,0000.19,0000.33,0000.07,0000.31,0000.11,0000.08,19.3,25.4,11.7,08.1,0679.2,31.1
2021-05-26T19:21:00Z,00000200,00000000,0004.07,0002.08,0001.52,0000.37,0000.50,0000.14,0000.17,-000.08,0000.01,19.3,25.4,11.7,08.1,0679.2,31.0
2021-05-26T19:22:00Z,00000200,00000000,0003.33,0002.00,0001.38,0000.26,0000.41,0000.17,-000.13,0000.31,0000.28,19.3,25.4,11.7,08.1,0679.2,31.1
2021-05-26T19:23:00Z,00000200,00000000,0003.55,0002.37,0001.47,0000.15,0000.37,0000.40,-000.04,0000.10,0000.03,19.3,25.4,11.7,08.1,0679.1,31.0
2021-05-26T19:24:00Z,00000200,00000000,0002.94,0002.30,0001.21,0000.14,0000.41,0000.28,-000.01,-000.07,0000.04,19.3,25.4,11.7,08.1,0679.1,31.0
2021-05-26T19:25:00Z,00000200,00000000,0002.98,0002.26,0001.70,0000.17,0000.41,0000.43,0000.57,0000.32,0000.39,19.3,25.3,11.6,08.0,0679.1,31.0
2021-05-26T19:26:00Z,00000200,00000000,0003.38,0002.14,0001.41,0000.06,0000.38,0000.06,-000.09,-000.15,0000.03,19.3,25.4,11.7,08.0,0679.1,31.0
2021-05-26T19:27:00Z,00000200,00000000,0002.76,0002.32,0001.56,-000.26,0000.30,0000.41,0000.04,0000.45,0000.26,19.3,25.3,11.6,08.0,0679.1,31.0
2021-05-26T19:28:00Z,00000200,00000000,0002.96,0002.41,0001.75,0000.13,0000.57,0000.34,0000.16,-000.24,0000.38,19.2,25.3,11.6,08.0,0679.1,31.0
2021-05-26T19:29:00Z,00000200,00000000,0003.77,0002.25,0001.69,0000.43,0000.38,0000.43,-000.27,-000.07,-000.10,19.2,25.3,11.6,08.0,0679.1,31.0
2021-05-26T19:30:00Z,00000200,00000000,0002.89,0002.38,0001.37,0000.36,0000.34,0000.04,0000.13,0000.61,0000.16,19.2,25.3,11.5,08.0,0679.1,31.0
2021-05-26T19:31:00Z,00000200,00000000,0003.56,0002.35,0001.25,0000.23,0000.58,0000.37,-000.11,-000.34,0000.12,19.2,25.3,11.5,07.9,0679.1,31.0
2021-05-26T19:32:00Z,00000200,00000000,0003.17,0001.99,0001.41,0000.39,0000.29,0000.56,0000.47,0000.07,-000.03,19.2,25.3,11.5,07.9,0679.1,31.0
2021-05-26T19:33:00Z,00000200,00000000,0002.74,0002.17,0001.52,-000.36,0000.50,0000.21,-000.11,0000.18,0000.10,19.2,25.3,11.5,07.9,0679.1,31.0
2021-05-26T19:34:00Z,00000200,00000000,0003.15,0002.05,0001.29,0000.22,0000.28,0000.44,0000.86,0000.27,0000.20,19.2,25.3,11.5,07.9,0679.1,31.0
2021-05-26T19:35:00Z,00000200,00000000,0002.84,0002.11,0001.41,-000.26,0000.34,0000.01,-000.69,0000.24,0000.40,19.2,25.3,11.6,08.0,0679.1,31.0
2021-05-26T19:36:00Z,00000200,00000000,0002.66,0001.83,0001.47,-000.09,0000.50,0000.18,0000.17,-000.06,0000.07,19.2,25.3,11.5,08.0,0679.1,31.0
2021-05-26T19:37:00Z,00000200,00000000,0003.26,0002.19,0001.64,-000.11,0000.32,0000.53,-000.18,-000.03,0000.15,19.2,25.3,11.4,07.9,0679.1,31.0
2021-05-26T19:38:00Z,00000200,00000000,0003.29,0002.18,0001.64,0000.02,0000.34,0000.21,0000.19,0000.22,0000.32,19.2,25.2,11.5,08.0,0679.2,31.0
2021-05-26T19:39:00Z,00000200,00000000,0003.40,0002.11,0001.43,-000.20,0000.16,0000.25,0000.30,-000.11,-000.15,19.2,25.3,11.4,07.9,0679.2,31.0
2021-05-26T19:40:00Z,00000200,00000000,0003.00,0002.09,0001.57,-000.18,0000.16,0000.47,0000.14,0000.39,0000.49,19.2,25.3,11.4,07.9,0679.2,31.0
2021-05-26T19:41:00Z,00000200,00000000,0002.38,0002.09,0001.71,0000.57,0000.18,0000.28,-000.09,-000.61,-000.10,19.2,25.3,11.5,07.9,0679.2,31.0
2021-05-26T19:42:00Z,00000200,00000000,0003.00,0002.05,0001.47,-000.52,0000.14,0000.39,0000.28,0000.74,0000.21,19.2,25.3,11.4,07.9,0679.2,31.1
2021-05-26T19:43:00Z,00000200,00000000,0002.54,0001.96,0001.49,0000.15,0000.30,0000.50,-000.30,0000.12,0000.46,19.2,25.3,11.4,07.9,0679.2,31.0
2021-05-26T19:44:00Z,00000200,00000000,0003.12,0001.91,0001.50,0000.27,0000.18,0000.21,0000.17,0000.04,0000.01,19.2,25.3,11.3,07.8,0679.2,31.0
2021-05-26T19:45:00Z,00000200,00000000,0002.65,0002.07,0001.44,-000.14,0000.55,0000.36,-000.09,0000.02,-000.42,19.2,25.3,11.3,07.8,0679.2,31.0
2021-05-26T19:46:00Z,00000200,00000000,0003.24,0002.30,0001.40,0000.53,0000.57,0000.21,0000.05,0000.23,0000.41,19.2,25.2,11.3,07.8,0679.2,31.0
2021-05-26T19:47:00Z,00000200,00000000,0002.77,0001.97,0001.52,0000.31,0000.23,0000.16,-000.03,0000.03,-000.05,19.2,25.2,11.3,07.8,0679.2,31.0
2021-05-26T19:48:00Z,00000200,00000000,0002.74,0002.08,0001.50,-000.16,0000.31,0000.56,0000.06,-000.32,0000.13,19.2,25.2,11.3,07.8,0679.2,31.0
2021-05-26T19:49:00Z,00000200,00000000,0003.15,0001.76,0001.03,-000.11,0000.32,0000.24,0000.41,0000.59,0000.67,19.2,25.3,11.2,07.8,0679.2,31.0
2021-05-26T19:50:00Z,00000200,00000000,0002.54,0001.92,0001.36,0000.14,0000.36,0000.31,-000.20,-000.01,-000.39,19.2,25.3,11.2,07.8,0679.3,31.0
2021-05-26T19:51:00Z,00000200,00000000,0002.44,0002.08,0000.96,-000.42,0000.22,-000.07,-000.01,-000.21,0000.32,19.2,25.3,11.2,07.8,0679.3,31.0
2021-05-26T19:52:00Z,00000200,00000000,0002.75,0002.09,0001.34,0000.35,0000.36,0000.57,0000.44,0000.36,0000.12,19.2,25.3,11.2,07.7,0679.3,31.0
2021-05-26T19:53:00Z,00000200,00000000,0002.74,0002.16,0001.16,0000.18,0000.25,0000.12,0000.19,-000.01,0000.47,19.2,25.2,11.2,07.7,0679.3,31.0
2021-05-26T19:54:00Z,00000200,00000000,0002.57,0001.70,0001.24,-000.34,0000.16,0000.22,-000.39,0000.29,0000.30,19.2,25.2,11.2,07.8,0679.3,31.0
2021-05-26T19:55:00Z,00000200,00000000,0003.01,0002.11,0001.43,-000.07,0000.19,0000.12,0000.28,-000.11,-000.28,19.2,25.3,11.1,07.7,0679.3,31.0
2021-05-26T19:56:00Z,00000200,00000000,0002.94,0001.62,0001.35,0000.14,0000.29,0000.23,-000.08,0000.11,0000.41,19.2,25.2,11.1,07.7,0679.3,31.1
2021-05-26T19:57:00Z,00000200,40000000,,,,,,,0000.29,0000.70,-000.01,19.3,25.3,11.2,07.8,0679.3,31.0
2021-05-26T19:58:00Z,00000200,60000000,,,,,,,-000.02,-000.65,-000.29,19.1,25.4,11.3,07.6,0678.3,31.0
2021-05-26T19:59:00Z,00000200,20000000,,,,,,,-000.15,0000.07,-000.19,19.1,25.5,11.2,07.6,0678.3,31.0
